| time (UTC) | temp C | wind direction | speed KPH | gust KPH | rain 1hr cm | rain 24hr cm | rain mn cm | humidity % | barometer mb |
| 20260507051021 | 5 | 261 | 4.8 | 11.3 | 0.00 | 1.17 | 0.00 | 79 | 1012.1 |
| 20260507050524 | 5 | 265 | 3.2 | 11.3 | 0.00 | 1.17 | 0.00 | 80 | 1012.1 |
| 20260507050039 | 5 | 294 | 4.8 | 12.9 | 0.00 | 1.17 | 0.00 | 81 | 1012.1 |
| 20260507045533 | 6 | 248 | 4.8 | 12.9 | 0.00 | 1.32 | 0.00 | 81 | 1012.1 |
| 20260507045023 | 6 | 288 | 6.4 | 12.9 | 0.00 | 1.32 | 0.00 | 82 | 1012.1 |
| 20260507044547 | 6 | 298 | 4.8 | 11.3 | 0.00 | 1.32 | 0.00 | 82 | 1011.7 |
| 20260507044022 | 6 | 0 | 3.2 | 12.9 | 0.00 | 1.32 | 0.00 | 83 | 1011.8 |
| 20260507043521 | 6 | 267 | 4.8 | 12.9 | 0.00 | 1.32 | 0.00 | 84 | 1011.9 |
| 20260507043042 | 5 | 227 | 4.8 | 11.3 | 0.00 | 1.32 | 0.00 | 85 | 1011.9 |
| 20260507042525 | 5 | 282 | 0.0 | 11.3 | 0.00 | 1.32 | 0.00 | 85 | 1012.0 |
| 20260507042022 | 5 | 278 | 1.6 | 12.9 | 0.00 | 1.32 | 0.00 | 86 | 1011.8 |
| 20260507041541 | 5 | 272 | 3.2 | 12.9 | 0.00 | 1.32 | 0.00 | 86 | 1011.7 |
| 20260507041020 | 5 | 277 | 8.0 | 12.9 | 0.00 | 1.32 | 0.00 | 86 | 1011.6 |
| 20260507040521 | 5 | 291 | 4.8 | 12.9 | 0.00 | 1.32 | 0.00 | 87 | 1011.7 |
| 20260507040041 | 5 | 267 | 4.8 | 16.1 | 0.00 | 1.32 | 0.00 | 88 | 1011.5 |
| 20260507035520 | 5 | 304 | 4.8 | 16.1 | 0.00 | 1.40 | 1.32 | 88 | 1011.7 |
| 20260507035023 | 5 | 317 | 6.4 | 14.5 | 0.00 | 1.40 | 1.32 | 89 | 1011.6 |
| 20260507034545 | 5 | 260 | 4.8 | 14.5 | 0.00 | 1.40 | 1.32 | 89 | 1011.5 |
| 20260507034023 | 5 | 278 | 4.8 | 12.9 | 0.00 | 1.40 | 1.32 | 90 | 1011.4 |
| 20260507033523 | 5 | 280 | 3.2 | 12.9 | 0.00 | 1.40 | 1.32 | 90 | 1011.3 |
| 20260507033035 | 5 | 305 | 3.2 | 11.3 | 0.00 | 1.40 | 1.32 | 90 | 1011.2 |
| 20260507032521 | 5 | 263 | 4.8 | 11.3 | 0.00 | 1.40 | 1.32 | 90 | 1011.4 |
| 20260507032022 | 5 | 267 | 4.8 | 11.3 | 0.00 | 1.40 | 1.32 | 90 | 1011.4 |
| 20260507031543 | 5 | 254 | 4.8 | 11.3 | 0.00 | 1.40 | 1.32 | 90 | 1011.3 |
| 20260507031026 | 5 | 246 | 3.2 | 9.7 | 0.00 | 1.40 | 1.32 | 90 | 1011.2 |
| 20260507030523 | 5 | 0 | 1.6 | 9.7 | 0.00 | 1.40 | 1.32 | 90 | 1011.2 |
| 20260507030046 | 5 | 0 | 0.0 | 6.4 | 0.00 | 1.40 | 1.32 | 90 | 1011.3 |
| 20260507025520 | 5 | 279 | 3.2 | 6.4 | 0.00 | 1.52 | 1.32 | 90 | 1011.4 |
| 20260507025020 | 5 | 262 | 1.6 | 8.0 | 0.00 | 1.52 | 1.32 | 90 | 1011.4 |
| 20260507024543 | 5 | 263 | 3.2 | 9.7 | 0.00 | 1.52 | 1.32 | 90 | 1011.4 |
| 20260507024022 | 5 | 242 | 4.8 | 11.3 | 0.00 | 1.52 | 1.32 | 89 | 1011.4 |
| 20260507023524 | 5 | 251 | 3.2 | 11.3 | 0.00 | 1.52 | 1.32 | 89 | 1011.5 |
| 20260507023042 | 5 | 246 | 4.8 | 11.3 | 0.00 | 1.52 | 1.32 | 89 | 1011.4 |
| 20260507022523 | 5 | 255 | 3.2 | 6.4 | 0.00 | 1.52 | 1.32 | 89 | 1011.3 |
| 20260507022021 | 5 | 256 | 3.2 | 8.0 | 0.00 | 1.52 | 1.32 | 89 | 1011.4 |
| 20260507021537 | 5 | 254 | 3.2 | 8.0 | 0.00 | 1.52 | 1.32 | 89 | 1011.5 |
| 20260507021024 | 5 | 265 | 1.6 | 6.4 | 0.00 | 1.52 | 1.32 | 89 | 1011.3 |
| 20260507020523 | 5 | 277 | 1.6 | 11.3 | 0.00 | 1.52 | 1.32 | 88 | 1011.4 |
| 20260507020046 | 5 | 0 | 1.6 | 11.3 | 0.00 | 1.52 | 1.32 | 88 | 1011.4 |
| 20260507015523 | 5 | 306 | 3.2 | 12.9 | 0.00 | 1.57 | 1.32 | 88 | 1011.5 |
| 20260507015023 | 5 | 288 | 4.8 | 12.9 | 0.00 | 1.57 | 1.32 | 87 | 1011.5 |
| 20260507014553 | 5 | 306 | 4.8 | 12.9 | 0.00 | 1.57 | 1.32 | 86 | 1011.6 |
| 20260507014024 | 5 | 303 | 4.8 | 11.3 | 0.00 | 1.57 | 1.32 | 85 | 1011.7 |
| 20260507013522 | 6 | 300 | 4.8 | 11.3 | 0.00 | 1.57 | 1.32 | 84 | 1011.7 |
| 20260507013041 | 6 | 276 | 3.2 | 12.9 | 0.00 | 1.57 | 1.32 | 83 | 1011.6 |
| 20260507012526 | 6 | 292 | 4.8 | 12.9 | 0.00 | 1.57 | 1.32 | 83 | 1011.7 |
| 20260507012025 | 6 | 320 | 4.8 | 12.9 | 0.00 | 1.57 | 1.32 | 83 | 1011.5 |
| 20260507011541 | 6 | 265 | 6.4 | 11.3 | 0.00 | 1.57 | 1.32 | 84 | 1011.5 |
| 20260507011022 | 6 | 338 | 3.2 | 8.0 | 0.00 | 1.57 | 1.32 | 84 | 1011.3 |
| 20260507010525 | 6 | 311 | 1.6 | 8.0 | 0.00 | 1.57 | 1.32 | 84 | 1011.2 |
| 20260507010042 | 6 | 332 | 3.2 | 8.0 | 0.00 | 1.57 | 1.32 | 85 | 1011.1 |
| 20260507005526 | 6 | 0 | 0.0 | 4.8 | 0.00 | 1.65 | 1.32 | 86 | 1011.0 |
| 20260507005027 | 6 | 0 | 0.0 | 0.0 | 0.00 | 1.65 | 1.32 | 86 | 1010.7 |
| 20260507004543 | 6 | 0 | 0.0 | 0.0 | 0.00 | 1.65 | 1.32 | 85 | 1010.7 |
| 20260507004023 | 6 | 0 | 0.0 | 0.0 | 0.00 | 1.65 | 1.32 | 85 | 1010.6 |
| 20260507003522 | 7 | 0 | 0.0 | 0.0 | 0.00 | 1.65 | 1.32 | 85 | 1010.6 |
| 20260507003035 | 7 | 0 | 0.0 | 0.0 | 0.00 | 1.65 | 1.32 | 85 | 1010.4 |
| 20260507002527 | 7 | 0 | 0.0 | 0.0 | 0.00 | 1.65 | 1.32 | 84 | 1010.5 |
| 20260507002023 | 7 | 0 | 0.0 | 0.0 | 0.00 | 1.65 | 1.32 | 84 | 1010.4 |
| 20260507001543 | 7 | 0 | 0.0 | 4.8 | 0.00 | 1.65 | 1.32 | 84 | 1010.3 |
| 20260507001027 | 7 | 0 | 0.0 | 4.8 | 0.00 | 1.65 | 1.32 | 85 | 1010.4 |
| 20260507000523 | 7 | 0 | 0.0 | 0.0 | 0.00 | 1.65 | 1.32 | 85 | 1010.4 |
| 20260507000045 | 7 | 0 | 0.0 | 0.0 | 0.00 | 1.65 | 1.32 | 85 | 1010.4 |
| 20260506235522 | 7 | 0 | 0.0 | 0.0 | 0.00 | 1.83 | 1.32 | 85 | 1010.5 |
| 20260506235022 | 7 | 0 | 0.0 | 0.0 | 0.00 | 1.83 | 1.32 | 85 | 1010.3 |
| 20260506234541 | 7 | 0 | 0.0 | 0.0 | 0.00 | 1.83 | 1.32 | 85 | 1010.3 |
| 20260506234023 | 7 | 0 | 0.0 | 0.0 | 0.00 | 1.83 | 1.32 | 84 | 1010.2 |
| 20260506233523 | 7 | 0 | 0.0 | 1.6 | 0.00 | 1.83 | 1.32 | 84 | 1010.3 |
| 20260506233040 | 7 | 0 | 0.0 | 1.6 | 0.00 | 1.83 | 1.32 | 84 | 1010.1 |
| 20260506232522 | 7 | 0 | 0.0 | 1.6 | 0.00 | 1.83 | 1.32 | 84 | 1010.1 |
| 20260506232022 | 7 | 0 | 0.0 | 1.6 | 0.00 | 1.83 | 1.32 | 84 | 1009.9 |
| 20260506231547 | 7 | 0 | 0.0 | 4.8 | 0.00 | 1.83 | 1.32 | 84 | 1009.9 |
| 20260506231025 | 7 | 0 | 0.0 | 4.8 | 0.00 | 1.83 | 1.32 | 83 | 1009.9 |
| 20260506230523 | 7 | 144 | 0.0 | 3.2 | 0.00 | 1.83 | 1.32 | 83 | 1009.8 |
| 20260506230036 | 7 | 0 | 1.6 | 4.8 | 0.00 | 1.83 | 1.32 | 83 | 1009.7 |
| 20260506225524 | 7 | 149 | 1.6 | 4.8 | 0.00 | 1.83 | 1.32 | 83 | 1009.6 |
| 20260506225050 | 7 | 149 | 0.0 | 4.8 | 0.00 | 1.83 | 1.32 | 83 | 1009.5 |
| 20260506224544 | 7 | 149 | 0.0 | 0.0 | 0.00 | 1.83 | 1.32 | 83 | 1009.6 |
| 20260506224022 | 7 | 0 | 0.0 | 0.0 | 0.00 | 1.83 | 1.32 | 82 | 1009.6 |
| 20260506223522 | 7 | 0 | 0.0 | 0.0 | 0.00 | 1.83 | 1.32 | 82 | 1009.5 |
| 20260506223041 | 7 | 0 | 0.0 | 0.0 | 0.00 | 1.83 | 1.32 | 82 | 1009.7 |
| 20260506222523 | 7 | 0 | 0.0 | 0.0 | 0.00 | 1.83 | 1.32 | 82 | 1009.5 |
| 20260506222023 | 7 | 0 | 0.0 | 0.0 | 0.00 | 1.83 | 1.32 | 82 | 1009.3 |
| 20260506221544 | 7 | 0 | 0.0 | 0.0 | 0.00 | 1.83 | 1.32 | 82 | 1009.4 |
| 20260506221022 | 7 | 0 | 0.0 | 0.0 | 0.00 | 1.83 | 1.32 | 82 | 1009.5 |
| 20260506220522 | 7 | 0 | 0.0 | 0.0 | 0.00 | 1.83 | 1.32 | 82 | 1009.7 |
| 20260506220042 | 7 | 0 | 0.0 | 0.0 | 0.00 | 1.83 | 1.32 | 82 | 1009.8 |
| 20260506215523 | 7 | 0 | 0.0 | 0.0 | 0.00 | 1.83 | 1.32 | 81 | 1009.8 |
| 20260506215022 | 7 | 0 | 0.0 | 0.0 | 0.00 | 1.83 | 1.32 | 81 | 1009.8 |
| 20260506214540 | 7 | 0 | 0.0 | 0.0 | 0.00 | 1.83 | 1.32 | 81 | 1009.6 |
| 20260506214023 | 7 | 0 | 0.0 | 0.0 | 0.00 | 1.83 | 1.32 | 80 | 1009.7 |
| 20260506213523 | 7 | 0 | 0.0 | 0.0 | 0.00 | 1.83 | 1.32 | 81 | 1009.7 |
| 20260506213036 | 7 | 0 | 0.0 | 0.0 | 0.00 | 1.83 | 1.32 | 81 | 1009.4 |
| 20260506212523 | 7 | 0 | 0.0 | 0.0 | 0.00 | 1.83 | 1.32 | 81 | 1009.4 |
| 20260506212023 | 7 | 0 | 0.0 | 0.0 | 0.00 | 1.83 | 1.32 | 81 | 1009.4 |
| 20260506211542 | 7 | 0 | 0.0 | 0.0 | 0.00 | 1.83 | 1.32 | 81 | 1009.5 |
| 20260506211023 | 6 | 0 | 0.0 | 0.0 | 0.00 | 1.83 | 1.32 | 81 | 1009.3 |
| 20260506210527 | 6 | 0 | 0.0 | 0.0 | 0.00 | 1.83 | 1.32 | 80 | 1009.4 |
| 20260506210044 | 6 | 0 | 0.0 | 0.0 | 0.00 | 1.83 | 1.32 | 81 | 1009.2 |
| 20260506205521 | 6 | 0 | 0.0 | 0.0 | 0.00 | 1.83 | 1.32 | 81 | 1009.3 |
| 20260506205022 | 6 | 0 | 0.0 | 4.8 | 0.00 | 1.83 | 1.32 | 81 | 1009.6 |
| 20260506204541 | 6 | 0 | 0.0 | 4.8 | 0.00 | 1.83 | 1.32 | 81 | 1009.5 |
| 20260506204023 | 6 | 0 | 1.6 | 4.8 | 0.00 | 1.83 | 1.32 | 81 | 1009.6 |
| 20260506203522 | 6 | 0 | 0.0 | 6.4 | 0.00 | 1.83 | 1.32 | 81 | 1009.5 |
| 20260506203048 | 6 | 342 | 0.0 | 6.4 | 0.00 | 1.83 | 1.32 | 81 | 1009.4 |
| 20260506202525 | 6 | 0 | 3.2 | 6.4 | 0.00 | 1.83 | 1.32 | 81 | 1009.4 |
| 20260506202022 | 6 | 29 | 1.6 | 6.4 | 0.00 | 1.83 | 1.32 | 81 | 1009.4 |
| 20260506201559 | 6 | 28 | 3.2 | 6.4 | 0.00 | 1.83 | 1.32 | 82 | 1009.4 |
| 20260506201022 | 6 | 22 | 1.6 | 6.4 | 0.00 | 1.83 | 1.32 | 82 | 1009.4 |
| 20260506200523 | 6 | 19 | 3.2 | 8.0 | 0.00 | 1.83 | 1.32 | 82 | 1009.4 |
| 20260506200040 | 6 | 26 | 3.2 | 8.0 | 0.00 | 1.83 | 1.32 | 82 | 1009.3 |
| 20260506195520 | 6 | 5 | 3.2 | 6.4 | 0.00 | 1.83 | 1.32 | 83 | 1009.2 |
| 20260506195023 | 6 | 349 | 3.2 | 6.4 | 0.00 | 1.83 | 1.32 | 82 | 1009.3 |
| 20260506194550 | 6 | 34 | 3.2 | 11.3 | 0.00 | 1.83 | 1.32 | 84 | 1009.4 |
| 20260506194022 | 6 | 9 | 4.8 | 11.3 | 0.00 | 1.83 | 1.32 | 83 | 1009.5 |
| 20260506193522 | 6 | 23 | 1.6 | 8.0 | 0.00 | 1.83 | 1.32 | 84 | 1009.4 |
| 20260506193050 | 6 | 48 | 3.2 | 8.0 | 0.00 | 1.83 | 1.32 | 84 | 1009.3 |
| 20260506192524 | 6 | 24 | 3.2 | 8.0 | 0.00 | 1.83 | 1.32 | 85 | 1009.5 |
| 20260506192020 | 6 | 40 | 4.8 | 9.7 | 0.00 | 1.83 | 1.32 | 85 | 1009.5 |
| 20260506191543 | 6 | 19 | 4.8 | 11.3 | 0.00 | 1.83 | 1.32 | 85 | 1009.5 |
| 20260506191023 | 6 | 352 | 4.8 | 11.3 | 0.00 | 1.83 | 1.32 | 86 | 1009.4 |
| 20260506190523 | 6 | 5 | 3.2 | 11.3 | 0.00 | 1.83 | 1.32 | 87 | 1009.4 |
| 20260506190040 | 6 | 32 | 4.8 | 11.3 | 0.00 | 1.83 | 1.32 | 87 | 1009.4 |
| 20260506185521 | 6 | 32 | 4.8 | 14.5 | 0.00 | 1.83 | 1.32 | 88 | 1009.3 |
| 20260506185020 | 6 | 11 | 6.4 | 14.5 | 0.00 | 1.83 | 1.32 | 88 | 1009.2 |
| 20260506184547 | 6 | 314 | 4.8 | 14.5 | 0.00 | 1.83 | 1.32 | 89 | 1009.4 |
| 20260506184023 | 6 | 308 | 3.2 | 12.9 | 0.00 | 1.83 | 1.32 | 89 | 1009.3 |
| 20260506183523 | 6 | 333 | 4.8 | 17.7 | 0.00 | 1.83 | 1.32 | 89 | 1009.3 |
| 20260506183034 | 6 | 360 | 4.8 | 17.7 | 0.00 | 1.83 | 1.32 | 89 | 1009.5 |
| 20260506182520 | 5 | 320 | 6.4 | 17.7 | 0.00 | 1.83 | 1.32 | 89 | 1009.7 |
| 20260506182025 | 5 | 336 | 4.8 | 14.5 | 0.00 | 1.83 | 1.32 | 89 | 1009.6 |
| 20260506181541 | 5 | 360 | 4.8 | 14.5 | 0.00 | 1.83 | 1.32 | 89 | 1009.7 |
| 20260506181023 | 5 | 310 | 6.4 | 14.5 | 0.00 | 1.83 | 1.32 | 89 | 1009.7 |
| 20260506180525 | 5 | 360 | 4.8 | 11.3 | 0.00 | 1.83 | 1.32 | 89 | 1009.5 |
| 20260506180040 | 6 | 360 | 4.8 | 12.9 | 0.00 | 1.83 | 1.32 | 89 | 1009.4 |
| 20260506175526 | 6 | 352 | 4.8 | 12.9 | 0.00 | 1.83 | 1.32 | 90 | 1009.3 |
| 20260506175020 | 6 | 11 | 3.2 | 11.3 | 0.00 | 1.83 | 1.32 | 90 | 1009.2 |
| 20260506174541 | 6 | 327 | 6.4 | 11.3 | 0.00 | 1.83 | 1.32 | 90 | 1009.1 |
| 20260506174026 | 6 | 5 | 4.8 | 14.5 | 0.00 | 1.83 | 1.32 | 90 | 1008.9 |
| 20260506173525 | 5 | 360 | 3.2 | 14.5 | 0.00 | 1.83 | 1.32 | 90 | 1008.8 |
| 20260506173054 | 6 | 360 | 4.8 | 12.9 | 0.00 | 1.83 | 1.32 | 91 | 1008.6 |
| 20260506172523 | 6 | 5 | 6.4 | 14.5 | 0.00 | 1.83 | 1.32 | 90 | 1008.6 |
| 20260506172027 | 6 | 5 | 6.4 | 14.5 | 0.00 | 1.83 | 1.32 | 90 | 1008.7 |
| 20260506171550 | 6 | 19 | 3.2 | 14.5 | 0.00 | 1.83 | 1.32 | 91 | 1008.7 |
| 20260506171021 | 6 | 20 | 3.2 | 16.1 | 0.00 | 1.83 | 1.32 | 91 | 1008.7 |
| 20260506170521 | 6 | 28 | 4.8 | 16.1 | 0.00 | 1.83 | 1.32 | 91 | 1008.8 |
| 20260506170045 | 6 | 14 | 6.4 | 16.1 | 0.00 | 1.83 | 1.32 | 91 | 1008.8 |
| 20260506165526 | 6 | 344 | 6.4 | 16.1 | 0.00 | 1.83 | 1.32 | 91 | 1008.7 |
| 20260506165027 | 6 | 326 | 8.0 | 16.1 | 0.00 | 1.83 | 1.32 | 91 | 1008.6 |
| 20260506164543 | 6 | 24 | 4.8 | 14.5 | 0.00 | 1.83 | 1.32 | 91 | 1008.5 |
| 20260506164144 | 6 | 352 | 4.8 | 16.1 | 0.00 | 1.83 | 1.32 | 91 | 1008.5 |
| 20260506163527 | 6 | 341 | 8.0 | 16.1 | 0.00 | 1.83 | 1.32 | 91 | 1008.2 |
| 20260506163058 | 6 | 28 | 4.8 | 14.5 | 0.00 | 1.83 | 1.32 | 92 | 1008.4 |
| 20260506162527 | 6 | 352 | 4.8 | 14.5 | 0.00 | 1.83 | 1.32 | 92 | 1008.5 |
| 20260506162022 | 5 | 42 | 6.4 | 14.5 | 0.00 | 1.83 | 1.32 | 91 | 1008.6 |
| 20260506161544 | 6 | 32 | 6.4 | 14.5 | 0.00 | 1.83 | 1.32 | 92 | 1008.6 |
| 20260506161023 | 6 | 63 | 4.8 | 14.5 | 0.00 | 1.83 | 1.32 | 92 | 1008.6 |
| 20260506160527 | 6 | 19 | 6.4 | 14.5 | 0.00 | 1.83 | 1.32 | 92 | 1008.6 |
| 20260506160042 | 6 | 24 | 4.8 | 12.9 | 0.00 | 1.83 | 1.32 | 92 | 1008.7 |
| 20260506155523 | 6 | 24 | 4.8 | 11.3 | 0.00 | 1.83 | 1.32 | 92 | 1008.8 |
| 20260506155023 | 6 | 9 | 4.8 | 12.9 | 0.00 | 1.83 | 1.32 | 92 | 1008.8 |
| 20260506154540 | 6 | 352 | 6.4 | 12.9 | 0.00 | 1.83 | 1.32 | 92 | 1008.8 |
| 20260506154026 | 6 | 327 | 4.8 | 11.3 | 0.00 | 1.83 | 1.32 | 92 | 1008.8 |
| 20260506153523 | 5 | 20 | 4.8 | 12.9 | 0.00 | 1.83 | 1.32 | 92 | 1008.8 |
| 20260506153042 | 5 | 5 | 4.8 | 12.9 | 0.00 | 1.83 | 1.32 | 92 | 1008.8 |
| 20260506152525 | 5 | 32 | 4.8 | 11.3 | 0.00 | 1.83 | 1.32 | 92 | 1008.8 |
| 20260506152025 | 5 | 15 | 4.8 | 11.3 | 0.03 | 1.83 | 1.32 | 92 | 1008.9 |
| 20260506151542 | 5 | 11 | 4.8 | 12.9 | 0.03 | 1.83 | 1.32 | 92 | 1008.8 |
| 20260506151024 | 5 | 5 | 3.2 | 12.9 | 0.03 | 1.83 | 1.32 | 92 | 1008.8 |
| 20260506150520 | 5 | 28 | 4.8 | 12.9 | 0.03 | 1.83 | 1.32 | 92 | 1008.9 |
| 20260506150042 | 5 | 32 | 1.6 | 14.5 | 0.03 | 1.83 | 1.32 | 92 | 1008.7 |
| 20260506145521 | 5 | 22 | 4.8 | 14.5 | 0.03 | 1.83 | 1.32 | 92 | 1008.7 |
| 20260506145021 | 6 | 24 | 4.8 | 14.5 | 0.03 | 1.83 | 1.32 | 92 | 1008.5 |
| 20260506144540 | 6 | 27 | 6.4 | 12.9 | 0.03 | 1.83 | 1.32 | 92 | 1008.3 |
| 20260506144022 | 6 | 44 | 3.2 | 11.3 | 0.03 | 1.83 | 1.32 | 92 | 1008.2 |
| 20260506143522 | 6 | 342 | 4.8 | 11.3 | 0.03 | 1.83 | 1.32 | 92 | 1008.4 |
| 20260506143041 | 6 | 54 | 4.8 | 11.3 | 0.03 | 1.83 | 1.32 | 92 | 1008.3 |
| 20260506142522 | 6 | 32 | 4.8 | 11.3 | 0.05 | 1.83 | 1.32 | 92 | 1008.3 |
| 20260506142023 | 6 | 9 | 4.8 | 14.5 | 0.03 | 1.80 | 1.32 | 92 | 1008.3 |
| 20260506141534 | 6 | 352 | 3.2 | 14.5 | 0.03 | 1.80 | 1.32 | 92 | 1008.2 |
| 20260506141023 | 6 | 52 | 4.8 | 14.5 | 0.03 | 1.80 | 1.32 | 91 | 1008.2 |
| 20260506140526 | 6 | 45 | 4.8 | 11.3 | 0.03 | 1.80 | 1.32 | 91 | 1008.3 |
| 20260506140053 | 6 | 84 | 4.8 | 12.9 | 0.03 | 1.80 | 1.32 | 91 | 1008.3 |
| 20260506135522 | 6 | 321 | 6.4 | 12.9 | 0.03 | 1.80 | 1.32 | 91 | 1008.2 |
| 20260506135022 | 6 | 38 | 4.8 | 12.9 | 0.03 | 1.80 | 1.32 | 91 | 1008.1 |
| 20260506134541 | 6 | 38 | 4.8 | 12.9 | 0.03 | 1.80 | 1.32 | 91 | 1008.2 |
| 20260506134023 | 6 | 12 | 4.8 | 12.9 | 0.03 | 1.80 | 1.32 | 91 | 1008.1 |
| 20260506133619 | 6 | 32 | 6.4 | 12.9 | 0.03 | 1.80 | 1.32 | 91 | 1008.1 |
| 20260506133040 | 6 | 61 | 4.8 | 12.9 | 0.03 | 1.80 | 1.32 | 92 | 1008.0 |
| 20260506132522 | 6 | 59 | 4.8 | 11.3 | 0.00 | 1.78 | 1.30 | 92 | 1007.9 |
| 20260506132023 | 6 | 54 | 4.8 | 9.7 | 0.03 | 1.78 | 1.30 | 91 | 1008.1 |
| 20260506131541 | 6 | 64 | 4.8 | 8.0 | 0.03 | 1.78 | 1.30 | 91 | 1008.1 |
| 20260506131026 | 6 | 55 | 3.2 | 11.3 | 0.03 | 1.78 | 1.30 | 91 | 1008.1 |
| 20260506130525 | 6 | 75 | 4.8 | 12.9 | 0.03 | 1.78 | 1.30 | 91 | 1008.1 |
| 20260506130041 | 6 | 45 | 4.8 | 12.9 | 0.03 | 1.78 | 1.30 | 91 | 1008.1 |
| 20260506125523 | 6 | 78 | 3.2 | 11.3 | 0.03 | 1.78 | 1.30 | 91 | 1008.1 |
| 20260506125023 | 6 | 71 | 4.8 | 11.3 | 0.03 | 1.78 | 1.30 | 91 | 1008.0 |
| 20260506124538 | 6 | 65 | 6.4 | 12.9 | 0.05 | 1.78 | 1.30 | 91 | 1008.1 |
| 20260506124023 | 6 | 57 | 6.4 | 12.9 | 0.05 | 1.78 | 1.30 | 90 | 1008.0 |
| 20260506123523 | 6 | 70 | 4.8 | 16.1 | 0.05 | 1.78 | 1.30 | 91 | 1008.2 |
| 20260506123043 | 6 | 36 | 3.2 | 16.1 | 0.05 | 1.78 | 1.30 | 91 | 1008.1 |
| 20260506122523 | 6 | 66 | 9.7 | 20.9 | 0.05 | 1.78 | 1.30 | 90 | 1008.2 |
| 20260506122022 | 6 | 78 | 11.3 | 20.9 | 0.03 | 1.75 | 1.27 | 90 | 1008.1 |
| 20260506121543 | 6 | 57 | 6.4 | 14.5 | 0.03 | 1.75 | 1.27 | 90 | 1008.4 |
| 20260506121022 | 6 | 66 | 4.8 | 14.5 | 0.05 | 1.75 | 1.27 | 90 | 1008.6 |
| 20260506120523 | 6 | 69 | 6.4 | 14.5 | 0.05 | 1.75 | 1.27 | 90 | 1008.3 |
| 20260506120050 | 6 | 59 | 6.4 | 14.5 | 0.05 | 1.75 | 1.27 | 91 | 1008.2 |
| 20260506115523 | 6 | 69 | 4.8 | 14.5 | 0.08 | 1.75 | 1.27 | 91 | 1008.1 |
| 20260506115023 | 6 | 75 | 6.4 | 16.1 | 0.08 | 1.75 | 1.27 | 91 | 1008.0 |
| 20260506114550 | 6 | 55 | 6.4 | 16.1 | 0.05 | 1.73 | 1.24 | 91 | 1007.7 |
| 20260506114023 | 6 | 76 | 9.7 | 20.9 | 0.08 | 1.73 | 1.24 | 91 | 1007.9 |
| 20260506113523 | 6 | 43 | 9.7 | 20.9 | 0.08 | 1.73 | 1.24 | 91 | 1007.8 |
| 20260506113035 | 6 | 91 | 9.7 | 16.1 | 0.10 | 1.73 | 1.24 | 91 | 1007.8 |
| 20260506112519 | 6 | 80 | 6.4 | 14.5 | 0.13 | 1.73 | 1.24 | 92 | 1008.0 |
| 20260506112019 | 6 | 111 | 6.4 | 14.5 | 0.13 | 1.73 | 1.24 | 92 | 1008.1 |
| 20260506111543 | 6 | 19 | 4.8 | 14.5 | 0.15 | 1.73 | 1.24 | 92 | 1008.0 |
| 20260506111023 | 6 | 51 | 6.4 | 14.5 | 0.15 | 1.70 | 1.22 | 92 | 1007.8 |
| 20260506110523 | 6 | 61 | 4.8 | 14.5 | 0.15 | 1.70 | 1.22 | 92 | 1008.1 |
| 20260506110042 | 6 | 57 | 6.4 | 14.5 | 0.18 | 1.70 | 1.22 | 92 | 1008.1 |
| 20260506105520 | 6 | 76 | 4.8 | 11.3 | 0.18 | 1.68 | 1.19 | 92 | 1008.2 |
| 20260506105021 | 6 | 55 | 6.4 | 14.5 | 0.18 | 1.68 | 1.19 | 92 | 1008.3 |
| 20260506104544 | 6 | 24 | 4.8 | 14.5 | 0.18 | 1.68 | 1.19 | 92 | 1008.3 |
| 20260506104023 | 6 | 38 | 6.4 | 12.9 | 0.15 | 1.65 | 1.17 | 92 | 1008.2 |
| 20260506103520 | 6 | 76 | 4.8 | 9.7 | 0.15 | 1.65 | 1.17 | 92 | 1008.2 |
| 20260506103040 | 6 | 9 | 3.2 | 8.0 | 0.13 | 1.63 | 1.14 | 92 | 1008.5 |
| 20260506102523 | 6 | 53 | 4.8 | 8.0 | 0.10 | 1.60 | 1.12 | 92 | 1008.3 |
| 20260506102023 | 6 | 49 | 1.6 | 8.0 | 0.10 | 1.60 | 1.12 | 92 | 1008.5 |
| 20260506101537 | 6 | 34 | 1.6 | 16.1 | 0.08 | 1.57 | 1.09 | 92 | 1008.5 |
| 20260506101023 | 6 | 38 | 3.2 | 16.1 | 0.08 | 1.55 | 1.07 | 92 | 1008.3 |
| 20260506100520 | 6 | 342 | 4.8 | 11.3 | 0.08 | 1.55 | 1.07 | 92 | 1008.3 |
| 20260506100047 | 6 | 26 | 4.8 | 11.3 | 0.05 | 1.52 | 1.04 | 92 | 1008.1 |
| 20260506095524 | 6 | 67 | 3.2 | 9.7 | 0.05 | 1.47 | 1.02 | 92 | 1008.4 |
| 20260506095021 | 6 | 63 | 3.2 | 8.0 | 0.05 | 1.47 | 1.02 | 92 | 1008.1 |
| 20260506094546 | 6 | 61 | 3.2 | 8.0 | 0.05 | 1.47 | 1.02 | 92 | 1007.8 |
| 20260506094022 | 6 | 86 | 4.8 | 9.7 | 0.08 | 1.47 | 1.02 | 92 | 1007.8 |
| 20260506093523 | 6 | 87 | 3.2 | 12.9 | 0.08 | 1.47 | 1.02 | 92 | 1007.8 |
| 20260506093102 | 6 | 98 | 4.8 | 12.9 | 0.10 | 1.47 | 1.02 | 92 | 1007.6 |
| 20260506092520 | 6 | 75 | 3.2 | 11.3 | 0.10 | 1.47 | 1.02 | 92 | 1007.5 |
| 20260506092020 | 6 | 75 | 4.8 | 11.3 | 0.13 | 1.47 | 1.02 | 92 | 1007.7 |
| 20260506091545 | 6 | 84 | 4.8 | 12.9 | 0.13 | 1.47 | 1.02 | 92 | 1008.0 |
| 20260506091021 | 6 | 76 | 3.2 | 14.5 | 0.13 | 1.47 | 0.99 | 92 | 1008.0 |
| 20260506090520 | 6 | 78 | 6.4 | 14.5 | 0.13 | 1.47 | 0.99 | 92 | 1008.1 |
| 20260506090042 | 6 | 83 | 8.0 | 14.5 | 0.15 | 1.47 | 0.99 | 92 | 1007.8 |
| 20260506085523 | 6 | 120 | 4.8 | 11.3 | 0.15 | 1.45 | 0.97 | 92 | 1007.9 |
| 20260506085021 | 6 | 100 | 3.2 | 9.7 | 0.18 | 1.45 | 0.97 | 92 | 1008.2 |
| 20260506084545 | 6 | 104 | 3.2 | 9.7 | 0.18 | 1.45 | 0.97 | 92 | 1008.3 |
| 20260506084022 | 6 | 97 | 3.2 | 9.7 | 0.18 | 1.42 | 0.94 | 92 | 1008.6 |
| 20260506083523 | 6 | 159 | 3.2 | 6.4 | 0.20 | 1.42 | 0.94 | 92 | 1008.6 |
| 20260506083045 | 6 | 0 | 0.0 | 6.4 | 0.20 | 1.40 | 0.91 | 92 | 1008.6 |
| 20260506082527 | 6 | 81 | 3.2 | 8.0 | 0.20 | 1.40 | 0.91 | 92 | 1008.5 |
| 20260506082022 | 6 | 84 | 1.6 | 11.3 | 0.20 | 1.37 | 0.89 | 92 | 1008.6 |
| 20260506081541 | 6 | 136 | 3.2 | 14.5 | 0.23 | 1.37 | 0.89 | 92 | 1008.7 |
| 20260506081022 | 6 | 101 | 4.8 | 14.5 | 0.23 | 1.32 | 0.86 | 92 | 1008.5 |
| 20260506080521 | 6 | 90 | 3.2 | 9.7 | 0.20 | 1.32 | 0.84 | 92 | 1008.5 |
| 20260506073526 | 6 | 105 | 4.8 | 14.5 | 0.30 | 1.24 | 0.74 | 92 | 1008.5 |
| 20260506073042 | 6 | 83 | 6.4 | 14.5 | 0.30 | 1.22 | 0.71 | 92 | 1008.3 |
| 20260506072524 | 6 | 86 | 4.8 | 12.9 | 0.28 | 1.19 | 0.69 | 92 | 1008.3 |
| 20260506072027 | 6 | 40 | 4.8 | 12.9 | 0.28 | 1.19 | 0.69 | 92 | 1008.4 |
| 20260506071547 | 6 | 52 | 4.8 | 11.3 | 0.25 | 1.17 | 0.66 | 92 | 1008.7 |
| 20260506071021 | 6 | 32 | 6.4 | 11.3 | 0.25 | 1.14 | 0.64 | 92 | 1008.9 |
| 20260506070523 | 6 | 51 | 6.4 | 14.5 | 0.28 | 1.14 | 0.64 | 92 | 1008.8 |
| 20260506062021 | 7 | 53 | 3.2 | 8.0 | 0.15 | 0.91 | 0.41 | 92 | 1008.9 |
| 20260506061555 | 7 | 76 | 3.2 | 8.0 | 0.18 | 0.91 | 0.41 | 92 | 1008.7 |
| 20260506061025 | 7 | 41 | 1.6 | 9.7 | 0.18 | 0.89 | 0.38 | 92 | 1008.9 |
| 20260506060523 | 7 | 81 | 3.2 | 9.7 | 0.15 | 0.86 | 0.36 | 92 | 1008.9 |